This is the latest recevied weather packets stored in our database for station/object KA3BQE-13. If no packets are shown the sender has not sent any weather packets the latest 1 day(s).
| Time | Temp. | Humidity | Pressure | Rain* | Wind** | Luminosity | Snow |
|---|---|---|---|---|---|---|---|
| 1778004585 | 12.22° C | 75% | 1012.1 hPa | 0 mm | 1.34 m/s, 319° | 265 W/m² | - |
| 1778004281 | 11.67° C | 74% | 1012.1 hPa | 0 mm | 0.89 m/s, 223° | 261 W/m² | - |
| 1778003977 | 12.22° C | 72% | 1011.9 hPa | 0 mm | 1.34 m/s, 329° | 251 W/m² | - |
| 1778003673 | 12.22° C | 70% | 1012 hPa | 0 mm | 1.34 m/s, 351° | 289 W/m² | - |
| 1778003370 | 12.22° C | 75% | 1012.1 hPa | 0 mm | 0.45 m/s, 327° | 440 W/m² | - |
| 1778003062 | 12.78° C | 69% | 1011.9 hPa | 0 mm | 2.24 m/s, 333° | 609 W/m² | - |
| 1778002758 | 12.78° C | 72% | 1012 hPa | 0 mm | 0.89 m/s, 327° | 650 W/m² | - |
| 1778002455 | 11.67° C | 73% | 1012 hPa | 0 mm | 1.34 m/s, 322° | 644 W/m² | - |
| 1778002152 | 11.67° C | 72% | 1012 hPa | 0 mm | 0 m/s | 386 W/m² | - |
| 1778001850 | 11.67° C | 70% | 1012.3 hPa | 0 mm | 0.89 m/s, 346° | 364 W/m² | - |
| 1778001549 | 12.22° C | 77% | 1012.2 hPa | 0 mm | 0 m/s | 364 W/m² | - |
| 1778001246 | 11.67° C | 70% | 1012.1 hPa | 0 mm | 1.34 m/s, 324° | 396 W/m² | - |
| 1778000943 | 11.67° C | 72% | 1011.7 hPa | 0 mm | 1.79 m/s, 339° | 333 W/m² | - |
| 1778000640 | 11.67° C | 74% | 1011.7 hPa | 0 mm | 2.24 m/s, 0° | 296 W/m² | - |
| 1778000335 | 11.67° C | 72% | 1011.8 hPa | 0 mm | 1.34 m/s, 12° | 341 W/m² | - |
| 1778000030 | 11.11° C | 77% | 1011.7 hPa | 0 mm | 2.24 m/s, 356° | 405 W/m² | - |
| 1777999726 | 11.67° C | 78% | 1012 hPa | 0 mm | 1.79 m/s, 13° | 406 W/m² | - |
| 1777999422 | 11.67° C | 78% | 1012.2 hPa | 0 mm | 1.34 m/s, 27° | 365 W/m² | - |
| 1777999121 | 11.11° C | 77% | 1012.1 hPa | 0 mm | 0.89 m/s, 322° | 407 W/m² | - |
| 1777998819 | 11.11° C | 78% | 1012.2 hPa | 0 mm | 1.34 m/s, 350° | 418 W/m² | - |
| 1777998518 | 11.11° C | 79% | 1012 hPa | 0 mm | 2.24 m/s, 3° | 410 W/m² | - |
| 1777998213 | 10.56° C | 80% | 1011.8 hPa | 0 mm | 2.68 m/s, 346° | 335 W/m² | - |
| 1777997911 | 10.56° C | 77% | 1012.1 hPa | 0 mm | 3.13 m/s, 341° | 279 W/m² | - |
| 1777997608 | 10.56° C | 79% | 1011.7 hPa | 0 mm | 0.45 m/s, 301° | 308 W/m² | - |
| 1777997305 | 10.56° C | 76% | 1011.4 hPa | 0 mm | 2.68 m/s, 337° | 404 W/m² | - |
* Rain latest hour (hover to see other rain measurements)
** Current wind speed in m/s (hover to see current wind gust speed)